DateTime,F1_A11,F1_S11,BsB_S11,BsG_S11,BsR_S11,BbsB_S11,BbsG_S11,BbsR_S11,BaB_A11,BaG_A11,BaR_A11,T_S11,U_S11,P_S11,T1_A11
2016-08-25T00:00:00Z,0000380,20000600,,,,,,,,,,26.8,09.3,0675.1,34.8
2016-08-25T00:01:00Z,0000380,20000600,,,,,,,,,,26.8,09.3,0675.1,34.8
2016-08-25T00:02:00Z,0000380,20000600,,,,,,,,,,26.8,09.3,0675.1,34.8
2016-08-25T00:03:00Z,0000380,60000600,,,,,,,,,,26.8,09.3,0675.1,34.8
2016-08-25T00:04:00Z,0000380,40000600,0000.74,0000.89,0000.80,0000.22,0000.36,0000.14,-000.02,0000.04,-000.17,26.8,09.3,0676.0,34.8
2016-08-25T00:05:00Z,0000380,00000600,0000.68,0000.00,0000.39,0000.20,-000.05,0000.19,-000.07,-000.03,0000.10,26.8,09.3,0676.1,34.8
2016-08-25T00:06:00Z,0000380,00000600,0000.95,-000.20,0000.08,-000.33,0000.28,0000.06,0000.06,0000.04,0000.25,26.8,09.3,0676.1,34.8
2016-08-25T00:07:00Z,0000380,00000600,0000.69,0000.63,0000.47,0000.45,-000.08,-000.11,-000.06,0000.00,-000.04,26.7,09.4,0676.1,34.8
2016-08-25T00:08:00Z,0000380,00000600,0000.33,0000.43,0000.11,0000.33,-000.16,-000.23,0000.11,0000.14,-000.13,26.7,09.3,0676.1,34.8
2016-08-25T00:09:00Z,0000380,00000600,0000.63,-000.25,-000.25,0000.44,0000.34,-000.64,-000.02,0000.01,0000.13,26.7,09.4,0676.0,34.8
2016-08-25T00:10:00Z,0000380,00000600,0000.62,0000.30,0000.14,-000.23,0000.20,0000.11,-000.01,0000.04,0000.08,26.7,09.4,0676.0,34.8
2016-08-25T00:11:00Z,0000380,00000600,0001.05,0000.18,0000.33,0000.05,0000.33,-000.17,0000.03,-000.04,0000.23,26.7,09.5,0676.1,34.8
2016-08-25T00:12:00Z,0000380,00000600,0000.33,-000.10,0000.50,-000.09,-000.03,-000.19,-000.08,0000.21,-000.21,26.7,09.4,0676.1,34.8
2016-08-25T00:13:00Z,0000380,00000600,0000.61,0000.28,0000.52,0000.36,-000.14,-000.30,0000.20,-000.03,0000.24,26.7,09.5,0676.1,34.8
2016-08-25T00:14:00Z,0000380,00000600,0000.56,0000.42,0000.25,-000.49,0000.19,-000.20,0000.13,-000.02,0000.04,26.7,09.5,0676.1,34.8
2016-08-25T00:15:00Z,0000380,00000600,0001.12,0000.54,0000.39,0000.20,0000.02,0000.11,-000.01,0000.18,-000.17,26.7,09.4,0676.1,34.7
2016-08-25T00:16:00Z,0000380,00000600,0001.32,0000.15,0000.28,0000.03,-000.20,0000.27,0000.02,-000.04,0000.10,26.7,09.4,0676.1,34.7
2016-08-25T00:17:00Z,0000380,00000600,0000.63,0000.10,0000.67,0000.34,0000.19,-000.08,0000.04,-000.04,0000.18,26.8,09.4,0676.1,34.7
2016-08-25T00:18:00Z,0000380,00000600,0001.39,0000.63,0000.31,-000.09,-000.02,-000.16,-000.14,0000.08,-000.12,26.8,09.3,0676.1,34.7
2016-08-25T00:19:00Z,0000380,00000600,0000.81,0000.43,0000.05,0000.16,0000.11,-000.20,0000.16,0000.04,-000.06,26.8,09.3,0676.0,34.7
2016-08-25T00:20:00Z,0000380,00000600,0000.96,0000.92,0000.47,0000.09,0000.03,0000.22,0000.09,-000.01,0000.17,26.8,09.3,0676.0,34.7
2016-08-25T00:21:00Z,0000380,00000600,0000.96,0000.18,0000.05,0000.55,0000.34,-000.13,-000.10,0000.06,-000.02,26.8,09.3,0676.0,34.7
2016-08-25T00:22:00Z,0000380,00000600,0000.29,0000.64,0000.03,-000.13,0000.11,-000.31,0000.17,-000.11,-000.23,26.8,09.4,0676.0,34.7
2016-08-25T00:23:00Z,0000380,00000600,0000.62,0000.15,0000.05,0000.53,-000.06,-000.11,-000.13,0000.26,0000.40,26.8,09.2,0676.0,34.7
2016-08-25T00:24:00Z,0000380,00000600,0001.26,0000.31,-000.09,0000.16,0000.22,-000.27,0000.09,0000.05,0000.08,26.8,09.3,0676.0,34.7
2016-08-25T00:25:00Z,0000380,00000600,-001.27,0000.37,-000.06,0000.16,-000.14,-000.41,0000.13,0000.03,-000.12,26.8,09.3,0676.0,34.7
2016-08-25T00:26:00Z,0000380,00000600,0000.89,0000.43,0000.31,0000.09,-000.06,0000.13,-000.04,-000.14,-000.07,26.9,09.2,0676.0,34.7
2016-08-25T00:27:00Z,0000380,00000600,0000.78,0000.17,0000.14,-000.03,0000.06,-000.06,0000.08,0000.14,-000.05,26.9,09.2,0676.0,34.7
2016-08-25T00:28:00Z,0000380,00000600,0000.76,0000.05,0000.41,-000.09,-000.23,0000.08,0000.03,-000.04,0000.29,26.9,09.2,0676.0,34.7
2016-08-25T00:29:00Z,0000380,00000600,0000.44,0000.32,0000.60,-000.49,0000.17,-000.30,0000.03,0000.01,-000.28,26.9,09.1,0676.0,34.7
2016-08-25T00:30:00Z,0000380,00000600,0000.23,-000.02,0000.19,-000.69,0000.12,-000.14,-000.06,0000.16,0000.30,26.9,09.2,0676.0,34.8
2016-08-25T00:31:00Z,0000380,00000600,0000.69,0000.21,0000.25,0000.06,0000.25,-000.06,0000.14,0000.05,-000.04,27.0,09.1,0676.0,34.8
2016-08-25T00:32:00Z,0000380,00000600,0000.97,0000.45,0000.27,-000.27,0000.19,0000.13,-000.06,-000.17,-000.17,27.0,09.1,0676.0,34.8
2016-08-25T00:33:00Z,0000380,00000600,0001.19,0000.30,0000.20,-000.03,0000.53,-000.28,-000.03,0000.14,0000.02,27.0,09.1,0676.0,34.8
2016-08-25T00:34:00Z,0000380,00000600,0000.62,-000.34,0000.44,0000.34,-000.19,-000.06,0000.07,0000.04,0000.23,27.0,09.0,0676.1,34.8
2016-08-25T00:35:00Z,0000380,00000600,0000.14,-000.17,0000.19,-000.08,0000.37,-000.34,0000.04,-000.18,-000.03,27.0,08.9,0676.1,34.8
2016-08-25T00:36:00Z,0000380,00000600,0000.40,0000.14,0000.24,-000.33,-000.03,0000.30,-000.03,0000.16,-000.16,27.0,08.8,0676.1,34.8
2016-08-25T00:37:00Z,0000380,00000600,0000.57,-000.22,0000.29,0000.34,-000.33,0000.06,0000.01,0000.05,0000.28,27.0,08.9,0676.1,34.8
2016-08-25T00:38:00Z,0000380,00000600,0000.96,-000.32,0000.64,0000.44,-000.14,0000.06,0000.31,0000.00,-000.09,27.0,08.9,0676.1,34.8
2016-08-25T00:39:00Z,0000380,00000600,-000.30,-000.24,0000.49,0000.47,0000.69,0000.03,-000.20,0000.09,-000.07,27.0,08.8,0676.1,34.8
2016-08-25T00:40:00Z,0000380,00000600,0000.72,0000.56,0000.16,-000.02,0000.41,-000.30,0000.04,0000.12,0000.04,27.0,08.9,0676.1,34.8
2016-08-25T00:41:00Z,0000380,00000600,0000.51,0000.00,0000.61,-000.34,-000.22,-000.11,-000.08,-000.11,0000.16,27.0,08.8,0676.1,34.8
2016-08-25T00:42:00Z,0000380,00000600,-000.71,0000.25,0000.41,-000.36,0000.25,-000.09,0000.13,0000.22,0000.17,27.1,08.7,0676.1,34.8
2016-08-25T00:43:00Z,0000380,00000600,0000.77,0000.27,-000.02,0000.17,0000.22,0000.13,-000.01,-000.08,-000.14,27.1,08.8,0676.1,34.8
2016-08-25T00:44:00Z,0000380,00000600,0000.72,0000.40,0000.58,0000.11,0000.05,-000.41,-000.04,-000.05,0000.09,27.1,08.7,0676.1,34.8
2016-08-25T00:45:00Z,0000380,00000600,0000.00,-000.71,0000.44,-000.53,0000.27,-000.19,0000.16,-000.04,-000.18,27.1,08.7,0676.1,34.8
2016-08-25T00:46:00Z,0000380,00000600,0000.53,0000.32,0000.09,-000.33,-000.27,0000.19,0000.04,0000.08,0000.13,27.2,08.7,0676.2,34.8
2016-08-25T00:47:00Z,0000380,00000600,0000.04,-000.05,0000.16,0000.14,-000.03,0000.02,-000.02,-000.00,-000.26,27.2,08.7,0676.2,34.8
2016-08-25T00:48:00Z,0000380,00000600,0000.14,0000.26,0000.44,-000.50,0000.19,0000.08,0000.19,0000.08,0000.48,27.2,08.6,0676.2,34.8
2016-08-25T00:49:00Z,0000380,00000600,0000.53,0000.28,0000.02,0000.38,0000.11,0000.00,-000.08,0000.02,-000.22,27.2,08.7,0676.2,34.8
2016-08-25T00:50:00Z,0000380,00000600,-000.51,0000.38,0000.13,-000.14,0000.12,-000.19,-000.02,0000.04,0000.03,27.2,08.6,0676.2,34.8
2016-08-25T00:51:00Z,0000380,00000600,0000.72,0000.12,0000.13,-000.06,0000.34,-000.25,0000.02,0000.07,0000.05,27.2,08.6,0676.2,34.8
2016-08-25T00:52:00Z,0000380,00000600,0000.61,-000.10,0000.14,0000.30,-000.03,0000.00,0000.00,-000.05,0000.04,27.2,08.6,0676.2,34.8
2016-08-25T00:53:00Z,0000380,00000600,0000.56,0000.28,0000.30,-000.20,-000.06,0000.36,-000.01,0000.01,-000.07,27.3,08.6,0676.2,34.8
2016-08-25T00:54:00Z,0000380,00000600,0000.54,-000.18,-000.08,0000.27,-000.16,0000.24,0000.06,0000.10,0000.20,27.3,08.5,0676.2,34.8
2016-08-25T00:55:00Z,0000380,00000600,0000.34,-000.27,0000.20,0000.20,0000.16,0000.19,-000.05,-000.02,-000.01,27.3,08.6,0676.2,34.8
2016-08-25T00:56:00Z,0000380,00000600,0000.56,-000.39,0000.18,0000.60,-000.12,-000.20,0000.00,0000.09,-000.08,27.3,08.6,0676.2,34.8
2016-08-25T00:57:00Z,0000380,40000600,,,,,,,,,,,,0676.0,34.8
2016-08-25T00:58:00Z,0000380,60000600,,,,,,,,,,27.0,08.8,0675.1,34.8
2016-08-25T00:59:00Z,0000380,20000600,,,,,,,,,,27.0,08.8,0675.1,34.8
2016-08-25T01:00:00Z,0000380,20000600,,,,,,,,,,27.0,08.7,0675.1,34.8
2016-08-25T01:01:00Z,0000380,20000600,,,,,,,,,,27.1,08.6,0675.1,34.8
2016-08-25T01:02:00Z,0000380,20000600,,,,,,,,,,27.2,08.6,0675.1,34.8
2016-08-25T01:03:00Z,0000380,60000600,,,,,,,,,,27.2,08.6,0675.1,34.8
2016-08-25T01:04:00Z,0000380,40000600,0000.04,-000.07,-000.03,-000.28,0000.02,-000.02,0000.13,0000.06,-000.02,27.3,08.7,0676.0,34.8
2016-08-25T01:05:00Z,0000380,00000600,0000.12,0000.36,-000.19,0000.22,0000.17,0000.35,0000.01,-000.02,0000.04,27.3,08.7,0676.1,34.8
2016-08-25T01:06:00Z,0000380,00000600,0000.15,0000.47,0000.00,0000.86,0000.08,0000.16,-000.20,0000.06,-000.33,27.3,08.7,0676.1,34.8
2016-08-25T01:07:00Z,0000380,00000600,-000.25,0000.65,0000.07,-000.17,0000.62,0000.11,0000.13,0000.06,0000.28,27.3,08.7,0676.1,34.8
2016-08-25T01:08:00Z,0000380,00000600,-000.30,0000.05,0000.20,-000.16,0000.19,-000.08,-000.20,-000.05,0000.28,27.3,08.7,0676.2,34.8
2016-08-25T01:09:00Z,0000380,00000600,-000.13,-000.92,0000.10,-000.47,0000.00,-000.13,0000.22,0000.08,-000.09,27.3,08.8,0676.2,34.8
2016-08-25T01:10:00Z,0000380,00000600,-000.41,-000.35,0000.00,-000.27,-000.05,0000.05,-000.10,0000.04,-000.17,27.4,08.7,0676.1,34.8
2016-08-25T01:11:00Z,0000380,00000600,-000.41,0001.20,-000.21,-000.14,-000.31,0000.14,0000.23,0000.04,-000.01,27.4,08.8,0676.2,34.8
2016-08-25T01:12:00Z,0000380,00000600,-000.47,0000.46,-000.22,0000.02,0000.19,0000.08,0000.21,-000.09,0000.28,27.4,08.8,0676.2,34.8
2016-08-25T01:13:00Z,0000380,00000600,-000.18,0000.11,0000.11,-000.08,0000.03,0000.24,-000.02,0000.10,-000.32,27.4,08.7,0676.2,34.8
2016-08-25T01:14:00Z,0000380,00000600,-000.35,-000.31,0000.01,-000.63,0000.11,0000.03,-000.23,-000.05,0000.12,27.4,08.7,0676.2,34.8
2016-08-25T01:15:00Z,0000380,00000600,-000.53,-000.30,0000.47,-000.36,-000.02,-000.33,-000.11,-000.03,-000.03,27.4,08.7,0676.2,34.8
2016-08-25T01:16:00Z,0000380,00000600,-000.95,0000.10,-000.06,-000.02,0000.28,-000.20,0000.16,-000.01,0000.25,27.5,08.7,0676.2,34.8
2016-08-25T01:17:00Z,0000380,00000600,-000.15,0000.08,0000.14,-000.30,-000.28,0000.11,0000.00,-000.02,-000.09,27.5,08.7,0676.2,34.8
2016-08-25T01:18:00Z,0000380,00000600,-000.13,0000.41,0000.27,-000.66,-000.36,0000.28,-000.04,0000.09,-000.38,27.5,08.8,0676.2,34.8
2016-08-25T01:19:00Z,0000380,00000600,0000.35,-000.20,-000.08,0000.16,-000.02,0000.31,-000.01,0000.02,0000.27,27.5,08.7,0676.2,34.8
2016-08-25T01:20:00Z,0000380,00000600,0000.80,0000.38,0000.14,0000.02,0000.28,0000.19,0000.07,0000.02,0000.12,27.4,08.7,0676.2,34.8
2016-08-25T01:21:00Z,0000380,00000600,-000.67,0000.53,-000.61,0000.52,-000.03,0000.02,-000.02,-000.01,-000.09,27.5,08.8,0676.2,34.8
2016-08-25T01:22:00Z,0000380,00000600,0000.02,-000.04,0000.03,0000.50,-000.19,0000.09,0000.10,0000.16,-000.02,27.5,08.8,0676.2,34.8
2016-08-25T01:23:00Z,0000380,00000600,-000.02,-000.55,-000.05,-000.41,0000.02,-000.05,-000.09,-000.09,-000.00,27.5,08.7,0676.2,34.8
2016-08-25T01:24:00Z,0000380,00000600,-000.31,-000.07,0000.14,-000.19,-000.09,0000.25,0000.16,0000.01,0000.05,27.5,08.7,0676.2,34.8
2016-08-25T01:25:00Z,0000380,00000600,-000.20,0000.16,-000.33,-000.02,-000.02,0000.02,-000.19,0000.08,-000.00,27.5,08.7,0676.2,34.8
2016-08-25T01:26:00Z,0000380,00000600,-000.90,0000.27,-000.05,-001.00,0000.09,0000.38,0000.20,-000.14,-000.06,27.5,08.7,0676.2,34.8
2016-08-25T01:27:00Z,0000380,00000600,-001.01,0000.25,0000.07,-000.74,-000.11,-000.24,-000.05,0000.18,0000.22,27.5,08.6,0676.2,34.8
2016-08-25T01:28:00Z,0000380,00000600,-000.49,0000.18,-000.14,-000.20,-000.36,-000.33,0000.13,-000.02,-000.28,27.5,08.6,0676.1,34.8
2016-08-25T01:29:00Z,0000380,00000600,-000.02,-000.09,0000.16,0000.11,-000.27,-000.03,-000.08,-000.04,0000.22,27.5,08.6,0676.1,34.8
2016-08-25T01:30:00Z,0000380,00000600,-000.21,0000.38,0000.32,-000.19,0000.20,0000.13,0000.06,0000.03,0000.12,27.5,08.6,0676.1,34.8
2016-08-25T01:31:00Z,0000380,00000600,-000.49,0000.55,-000.05,-000.56,0000.30,-000.28,-000.07,0000.05,0000.04,27.5,08.6,0676.2,34.8
2016-08-25T01:32:00Z,0000380,00000600,0001.84,0000.19,-000.16,-000.75,-000.12,0000.22,0000.13,-000.06,-000.14,27.5,08.6,0676.2,34.8
2016-08-25T01:33:00Z,0000380,00000600,0000.55,-000.37,-000.15,-000.28,-000.23,-000.44,0000.06,0000.01,0000.00,27.5,08.5,0676.2,34.8
2016-08-25T01:34:00Z,0000380,00000600,-000.09,-000.30,0000.00,-000.24,-000.08,-000.03,-000.10,0000.06,0000.07,27.5,08.6,0676.2,34.8
2016-08-25T01:35:00Z,0000380,00000600,-000.52,0000.25,-000.24,0000.08,-000.05,-000.03,0000.09,-000.06,0000.10,27.5,08.6,0676.2,34.8
2016-08-25T01:36:00Z,0000380,00000600,-000.45,-000.14,-000.02,-000.47,0000.14,-000.55,0000.03,0000.15,-000.13,27.5,08.6,0676.2,34.8
2016-08-25T01:37:00Z,0000380,00000600,-000.07,0000.42,-000.14,-000.08,0000.20,0000.11,-000.01,-000.08,-000.03,27.5,08.6,0676.2,34.8
2016-08-25T01:38:00Z,0000380,00000600,0000.22,0000.35,-000.10,-000.74,-000.02,0000.02,0000.02,0000.01,-000.01,27.6,08.6,0676.2,34.8
2016-08-25T01:39:00Z,0000380,00000600,0000.23,0000.63,0000.10,-000.05,-000.09,0000.13,-000.12,0000.06,0000.16,27.5,08.6,0676.2,34.8
2016-08-25T01:40:00Z,0000380,00000600,0000.31,-000.31,0000.53,0000.30,-000.02,0000.35,0000.19,0000.04,0000.03,27.6,08.5,0676.2,34.8
2016-08-25T01:41:00Z,0000380,00000600,-000.72,-000.25,-000.19,-000.41,-000.36,-000.17,-000.22,-000.12,-000.30,27.6,08.5,0676.2,34.8
2016-08-25T01:42:00Z,0000380,00000600,-000.04,-000.46,-000.07,-000.77,-000.14,0000.08,0000.22,0000.02,0000.21,27.6,08.5,0676.2,34.8
2016-08-25T01:43:00Z,0000380,00000600,0000.62,-000.25,0000.01,-000.19,0000.05,0000.31,-000.11,0000.05,0000.30,27.6,08.5,0676.2,34.8
2016-08-25T01:44:00Z,0000380,00000600,-000.51,0000.30,-000.17,-000.56,-000.08,0000.05,0000.02,0000.03,-000.24,27.6,08.5,0676.2,34.8
2016-08-25T01:45:00Z,0000380,00000600,0000.13,-000.81,-000.40,-000.27,-000.27,-000.02,0000.17,0000.08,-000.08,27.6,08.5,0676.2,34.8
2016-08-25T01:46:00Z,0000380,00000600,0000.42,-000.09,0000.07,0000.06,0000.20,-000.16,-000.09,-000.15,-000.16,27.6,08.5,0676.2,34.8
2016-08-25T01:47:00Z,0000380,00000600,0000.42,0000.02,0000.19,0000.11,-000.06,0000.13,-000.22,0000.07,0000.38,27.6,08.5,0676.2,34.8
2016-08-25T01:48:00Z,0000380,00000600,-000.07,-000.04,-000.09,-000.20,-000.66,0000.05,0000.23,-000.07,-000.22,27.6,08.5,0676.1,34.8
2016-08-25T01:49:00Z,0000380,00000600,-000.63,0000.00,-000.24,-000.11,0000.27,-000.42,0000.03,0000.01,-000.09,27.6,08.5,0676.1,34.8
2016-08-25T01:50:00Z,0000380,00000600,-000.40,0000.05,0000.09,-000.55,-000.52,0000.39,-000.03,0000.05,-000.07,27.6,08.5,0676.1,34.8
2016-08-25T01:51:00Z,0000380,00000600,-000.05,-000.21,0000.02,0000.47,-000.08,-000.13,0000.01,0000.06,0000.22,27.6,08.5,0676.1,34.8
2016-08-25T01:52:00Z,0000380,00000600,-000.60,0000.09,-000.19,-000.11,0000.05,-000.28,0000.09,0000.02,0000.11,27.7,08.5,0676.1,34.8
2016-08-25T01:53:00Z,0000380,00000600,-000.43,0000.25,-000.26,-000.52,0000.11,-000.28,-000.03,-000.06,-000.11,27.7,08.4,0676.1,34.8
2016-08-25T01:54:00Z,0000380,00000600,-000.54,0000.04,0000.19,-000.39,-000.23,-000.25,-000.09,0000.04,0000.06,27.7,08.5,0676.1,34.8
2016-08-25T01:55:00Z,0000380,00000600,0000.08,0000.21,0000.19,-000.22,0000.08,0000.38,0000.07,-000.05,-000.20,27.7,08.4,0676.1,34.8
2016-08-25T01:56:00Z,0000380,00000600,-000.23,-000.71,0000.02,-000.11,-000.44,0000.06,-000.00,0000.11,0000.25,27.7,08.4,0676.1,34.8
2016-08-25T01:57:00Z,0000380,40000600,,,,,,,,,,,,0676.0,34.8
2016-08-25T01:58:00Z,0000380,60000600,,,,,,,,,,27.5,08.5,0675.1,34.8
2016-08-25T01:59:00Z,0000380,20000600,,,,,,,,,,27.5,08.5,0675.1,34.8
2016-08-25T02:00:00Z,0000380,20000600,,,,,,,,,,27.5,08.5,0675.1,34.8
2016-08-25T02:01:00Z,0000380,20000600,,,,,,,,,,27.5,08.5,0675.1,34.8
2016-08-25T02:02:00Z,0000380,20000600,,,,,,,,,,27.5,08.5,0675.1,34.8
2016-08-25T02:03:00Z,0000380,60000600,,,,,,,,,,27.6,08.5,0675.1,34.8
2016-08-25T02:04:00Z,0000380,40000600,-000.22,0000.58,-000.05,-000.06,0000.13,0000.25,-000.05,-000.05,-000.10,27.7,08.4,0676.0,34.8
2016-08-25T02:05:00Z,0000380,00000600,0000.25,0000.11,-000.09,-000.33,0000.06,0000.13,-000.04,-000.02,-000.29,27.7,08.3,0676.1,34.8
2016-08-25T02:06:00Z,0000380,00000600,0000.04,0000.11,0000.12,0000.05,0000.22,-000.09,-000.07,-000.13,0000.18,27.7,08.2,0676.1,34.8
2016-08-25T02:07:00Z,0000380,00000600,-000.79,0000.46,0000.18,0000.71,-000.14,0000.22,0000.14,0000.17,-000.04,27.8,08.2,0676.1,34.8
2016-08-25T02:08:00Z,0000380,00000600,0000.52,0000.83,-000.28,0000.00,-000.03,0000.09,-000.06,0000.07,0000.05,27.7,08.2,0676.1,34.8
2016-08-25T02:09:00Z,0000380,00000600,-000.31,-000.13,0000.19,-000.14,0000.28,0000.30,-000.05,-000.09,0000.07,27.7,08.2,0676.1,34.8
2016-08-25T02:10:00Z,0000380,00000600,-000.65,0000.35,0000.10,0000.09,0000.34,0000.20,0000.17,0000.09,0000.13,27.7,08.2,0676.1,34.8
2016-08-25T02:11:00Z,0000380,00000600,-000.19,-000.13,-000.09,0000.05,0000.02,0000.24,-000.09,0000.01,-000.04,27.8,08.2,0676.1,34.8
2016-08-25T02:12:00Z,0000380,00000600,-000.15,-000.02,0000.01,-000.28,0000.28,-000.05,0000.02,-000.13,-000.10,27.7,08.2,0676.1,34.8
2016-08-25T02:13:00Z,0000380,00000600,0000.40,-000.16,-000.07,0000.49,0000.05,-000.13,0000.14,0000.11,-000.07,27.8,08.2,0676.1,34.8
2016-08-25T02:14:00Z,0000380,00000600,0000.69,0000.21,-000.17,-000.05,-000.16,0000.16,-000.09,-000.01,0000.37,27.8,08.1,0676.1,34.8
2016-08-25T02:15:00Z,0000380,00000600,-000.42,0000.34,-000.43,0000.61,0000.34,0000.02,0000.14,-000.05,-000.22,27.8,08.1,0676.1,34.8
2016-08-25T02:16:00Z,0000380,00000600,-000.51,-000.11,0000.00,-000.35,0000.23,0000.11,0000.01,0000.11,-000.09,27.8,08.1,0676.1,34.8
2016-08-25T02:17:00Z,0000380,00000600,-000.11,0000.99,-000.19,-000.47,-000.19,-000.11,-000.04,0000.05,0000.23,27.8,08.2,0676.1,34.8
2016-08-25T02:18:00Z,0000380,00000600,0000.25,0000.34,0000.26,0000.55,0000.34,0000.53,-000.06,0000.05,-000.18,27.8,08.1,0676.1,34.8
2016-08-25T02:19:00Z,0000380,00000600,0000.00,0000.42,0000.11,-000.08,0000.16,0000.25,0000.04,0000.07,0000.12,27.8,08.1,0676.1,34.8
2016-08-25T02:20:00Z,0000380,00000600,0000.27,0000.37,0000.14,-000.22,-000.08,0000.13,0000.05,-000.05,0000.11,27.8,08.1,0676.1,34.8
2016-08-25T02:21:00Z,0000380,00000600,0000.28,0000.37,-000.42,0000.08,0000.23,0000.05,0000.01,-000.05,0000.18,27.8,08.1,0676.1,34.8
2016-08-25T02:22:00Z,0000380,00000600,-000.20,0000.05,-000.12,0000.27,0000.00,0000.05,0000.05,-000.01,-000.40,27.8,08.1,0676.1,34.8
2016-08-25T02:23:00Z,0000380,00000600,0000.78,0000.76,-000.27,-000.05,0000.05,0000.14,-000.05,-000.07,-000.17,27.8,08.0,0676.1,34.8
2016-08-25T02:24:00Z,0000380,00000600,-000.09,-000.26,0000.20,0000.20,-000.22,-000.09,-000.12,-000.01,0000.36,27.8,08.0,0676.1,34.8
2016-08-25T02:25:00Z,0000380,00000600,-000.38,0001.49,-000.36,0000.44,0000.34,-000.17,0000.20,0000.03,0000.04,27.8,08.0,0676.1,34.8
2016-08-25T02:26:00Z,0000380,00000600,0000.39,-000.36,-000.82,-000.80,-000.03,-000.02,0000.01,0000.23,-000.19,27.8,08.0,0676.1,34.8
2016-08-25T02:27:00Z,0000380,00000600,0000.39,0000.45,-000.79,-000.14,-000.31,-000.19,-000.05,-000.15,0000.18,27.8,07.9,0676.1,34.8
2016-08-25T02:28:00Z,0000380,00000600,0000.26,-000.04,0000.20,0000.47,-000.06,0000.09,0000.09,-000.00,-000.01,27.8,08.0,0676.1,34.8
2016-08-25T02:29:00Z,0000380,00000600,0000.57,0000.42,-000.45,0000.02,0000.03,-000.08,-000.03,0000.03,-000.17,27.8,07.9,0676.1,34.8
2016-08-25T02:30:00Z,0000380,00000600,-000.04,0000.32,0000.36,0000.13,0000.45,0000.30,-000.02,0000.20,0000.28,27.8,08.0,0676.1,34.8
2016-08-25T02:31:00Z,0000380,00000600,-000.26,0000.44,-000.15,-000.02,0000.20,-000.03,-000.06,0000.02,-000.08,27.8,07.9,0676.0,34.8
2016-08-25T02:32:00Z,0000380,00000600,-000.65,0000.02,-000.21,-000.22,0000.20,0000.25,0000.14,-000.14,0000.23,27.8,08.0,0676.0,34.8
2016-08-25T02:33:00Z,0000380,00000600,0000.74,0000.22,0000.34,-000.13,0000.39,-000.33,0000.07,-000.03,-000.30,27.8,07.8,0676.0,34.8
2016-08-25T02:34:00Z,0000380,00000600,-000.02,0000.40,0000.70,-000.58,0000.23,0000.41,-000.00,-000.10,0000.11,27.8,07.8,0676.0,34.8
2016-08-25T02:35:00Z,0000380,00000600,0000.26,0000.39,-000.02,0000.13,0000.11,0000.13,0000.09,0000.23,-000.11,27.8,07.8,0676.0,34.8
2016-08-25T02:36:00Z,0000380,00000600,-000.32,-000.11,0000.22,-000.14,0000.02,0000.02,-000.01,-000.11,0000.08,27.8,07.8,0676.0,34.8
2016-08-25T02:37:00Z,0000380,00000600,-000.63,0000.58,0000.26,-000.53,0000.27,-000.02,-000.08,0000.04,0000.07,27.8,07.8,0676.1,34.8
2016-08-25T02:38:00Z,0000380,00000600,0000.06,0000.61,0000.03,0000.53,0000.36,0000.35,-000.05,-000.06,-000.22,27.8,07.8,0676.0,34.8
2016-08-25T02:39:00Z,0000380,00000600,-000.74,-000.17,0000.02,-000.03,0000.03,-000.19,-000.03,0000.05,-000.02,27.8,07.8,0676.0,34.8
2016-08-25T02:40:00Z,0000380,00000600,0000.47,0000.35,-000.12,0000.44,-000.02,-000.02,0000.03,0000.03,0000.10,27.8,07.9,0676.0,34.8
2016-08-25T02:41:00Z,0000380,00000600,0000.41,0000.88,-000.26,-000.14,-000.23,-000.03,0000.27,0000.06,0000.11,27.8,07.8,0676.1,34.8
2016-08-25T02:42:00Z,0000380,00000600,-000.38,0000.12,0000.05,0000.13,-000.05,0000.00,-000.00,0000.08,-000.01,27.8,07.9,0676.1,34.8
2016-08-25T02:43:00Z,0000380,00000600,0000.54,0000.08,0000.30,0000.44,0000.05,0000.08,-000.10,-000.11,0000.12,27.8,07.9,0676.0,34.8
2016-08-25T02:44:00Z,0000380,00000600,0001.11,-000.02,0000.31,0000.25,0000.36,-000.17,-000.02,0000.01,-000.04,27.8,07.9,0676.0,34.8
2016-08-25T02:45:00Z,0000380,00000600,0000.59,0000.44,0000.10,-000.25,-000.14,0000.22,-000.15,0000.00,0000.01,27.8,07.8,0676.1,34.8
2016-08-25T02:46:00Z,0000380,00000600,0000.74,0000.82,0000.13,-000.41,-000.13,-000.20,0000.14,0000.08,0000.01,27.8,07.9,0676.1,34.8
2016-08-25T02:47:00Z,0000380,00000600,-000.40,0000.56,0000.47,-000.20,-000.03,0000.14,-000.01,-000.11,0000.08,27.8,08.0,0676.0,34.8
2016-08-25T02:48:00Z,0000380,00000600,-000.58,0000.35,-000.11,-000.13,0000.41,0000.09,0000.15,0000.22,-000.04,27.8,07.9,0676.0,34.8
2016-08-25T02:49:00Z,0000380,00000600,-000.16,-000.14,-000.16,-000.13,0000.17,0000.13,0000.03,-000.13,-000.10,27.8,08.0,0676.0,34.8
2016-08-25T02:50:00Z,0000380,00000600,0000.96,0000.29,0000.41,0000.53,-000.02,0000.22,-000.08,0000.02,0000.17,27.8,08.1,0676.0,34.8
2016-08-25T02:51:00Z,0000380,00000600,0000.04,0000.66,0000.06,-000.19,0000.25,0000.02,0000.08,0000.14,0000.05,27.8,08.0,0676.0,34.8
2016-08-25T02:52:00Z,0000380,00000600,0000.32,-000.25,0000.02,-000.08,0000.48,0000.00,-000.05,0000.09,0000.09,27.8,08.0,0676.0,34.8
2016-08-25T02:53:00Z,0000380,00000600,-000.78,-000.20,-000.40,0000.24,-000.03,-000.27,0000.05,-000.19,-000.36,27.8,08.0,0676.0,34.8
2016-08-25T02:54:00Z,0000380,00000600,0000.50,0000.54,0000.06,0000.24,0000.19,-000.06,-000.07,0000.05,-000.06,27.8,08.0,0675.9,34.8
2016-08-25T02:55:00Z,0000380,00000600,0000.66,0000.13,-000.11,-000.25,0000.42,0000.05,-000.04,0000.06,0000.16,27.8,08.0,0675.9,34.8
2016-08-25T02:56:00Z,0000380,00000600,0000.02,0000.11,0000.09,-000.44,-000.17,0000.42,0000.13,-000.03,0000.03,27.8,08.0,0675.9,34.8
2016-08-25T02:57:00Z,0000380,40000600,,,,,,,,,,,,0675.8,34.8
2016-08-25T02:58:00Z,0000380,60000600,,,,,,,,,,27.7,08.1,0674.9,34.8
2016-08-25T02:59:00Z,0000380,20000600,,,,,,,,,,27.7,08.1,0674.8,34.8
2016-08-25T03:00:00Z,0000380,20000600,,,,,,,,,,27.7,08.1,0674.8,34.8
2016-08-25T03:01:00Z,0000380,20000600,,,,,,,,,,27.7,08.1,0674.8,34.8
2016-08-25T03:02:00Z,0000380,20000600,,,,,,,,,,27.7,08.1,0674.8,34.8
2016-08-25T03:03:00Z,0000380,60000600,,,,,,,,,,27.7,08.1,0674.8,34.8
2016-08-25T03:04:00Z,0000380,40000600,-000.56,-000.14,0000.57,0001.24,-000.25,-000.25,-000.05,-000.05,0000.05,27.8,08.0,0675.8,34.8
2016-08-25T03:05:00Z,0000380,00000600,0000.25,0000.90,-000.04,-000.13,0000.34,-000.41,0000.06,-000.01,-000.29,27.8,08.0,0675.9,34.8
2016-08-25T03:06:00Z,0000380,00000600,0000.08,-000.27,0000.76,0000.11,-000.05,0000.20,-000.02,0000.13,0000.38,27.8,08.0,0675.9,34.8
2016-08-25T03:07:00Z,0000380,00000600,0000.66,-000.06,-000.15,0000.19,0000.27,0000.03,0000.04,0000.01,-000.29,27.8,08.0,0675.9,34.8
2016-08-25T03:08:00Z,0000380,00000600,0001.27,0000.39,0000.35,-000.24,0000.45,-000.14,0000.05,0000.05,0000.38,27.8,07.9,0675.8,34.8
2016-08-25T03:09:00Z,0000380,00000600,0000.48,0000.24,-000.15,0000.06,0000.19,0000.00,0000.00,0000.02,-000.18,27.8,07.9,0675.9,34.8
2016-08-25T03:10:00Z,0000380,00000600,0000.12,0000.04,0000.32,0000.20,0000.02,0000.30,0000.19,-000.10,0000.14,27.8,08.0,0675.9,34.8
2016-08-25T03:11:00Z,0000380,00000600,0000.67,0000.03,0000.14,-000.28,0000.17,-000.14,-000.15,0000.04,-000.06,27.8,08.0,0675.9,34.8
2016-08-25T03:12:00Z,0000380,00000600,0000.63,0000.15,-000.02,-000.08,0000.63,-000.57,-000.11,0000.06,-000.01,27.8,07.9,0675.8,34.8